COSMOS 1285 DEB, 25838

Orbit data source: Space-Track

COSMOS 1285 DEB, 25838 is space debris in HEO originally from a launch on Tue, 04 Aug 1981 UTC launched from the Plesetsk Missile And Space Complex (PKMTR). Debris objects in space refer to the collection of defunct objects orbiting the Earth. Examples of debris include non-operational satellites, rocket bodies, and fragments generated from explosions, collisions, or faulty payload assembly.

Loading next visibility...
Identifier
25838, 1981-071G
Orbit
HEO
Country
Flag of CISCIS
Related business
Manufacturer
Unknown
Mission
Spacecraft
Bus & Motor
Unknown
Mass
Unknown
Launch date (UTC)
1981-08-04 (44 years ago)
Launch vehicle
Unknown
Launch site
Plesetsk Missile And Space Complex (PKMTR)
Object type
Payload
Rocket body
Debris
Shape & HBR
Unknown
Radar Cross Section
Medium (>0.1 m² and <1 m²)

Expand to show TLE details & history
Last TLE update: 1 month ago

TLE from 1 month ago
0 COSMOS 1285 DEB
1 25838U 81071G   25230.30322652  .00000399  00000-0  00000+0 0  9998
2 25838  67.9573  98.7936 6249193   0.3044   0.1173  1.98221688196140
Epoch: 2025-08-18T07:16Z
TLE epoch observation values (Epoch: 2025-08-18T07:16:38.771Z)
Latitude
0.00005°
Longitude
22.72996°
Altitude
3,672.004 km
Speed
8.027 km/s
True Right ascension
06h 35m 12s
True Declination
0° 00' 00"
Sunlit
Object was in daylight at epoch
Visualization orbit readout
Latitude
Unknown
Longitude
Unknown
Altitude
Unknown
Speed
Unknown
Apparent Right ascension
Unknown
Apparent Declination
Unknown
Sunlit
N/A
Visualization observer readout
Local Sidereal Time
15:01:31
Azimuth
Unknown
Elevation
Unknown
Doppler factor
Unknown
Orbital elements
Apogee altitude
37,117.957 km
Perigee altitude
3,662.082 km
Semi-major axis
26,768.157 km
Eccentricity
0.62492
Inclination
67.9573°
RAAN
98.7936°
Arg. of periapsis
0.3044°
True anomaly
0.65091°
Mean anomaly
0.1173°
Eccentric anomaly
0.31273°
Mean motion
0.49558 °/min
Orbital period
726.42 mins
BSTAR
0
Loading maneuver chart data...
Computing Atmospheric mass density...
Loading historical data...
Loading historical data...
Loading historical data...
Loading historical data...
Loading historical data...
Loading historical data...
Loading historical data...

Documentation

Showing up to 5 results
|